GEFSGL_con_cape1000_276.txt.gz
Probability
13 16 16 19 23 19 23 23 19 19 16 19 16 16 13 10 10 10 10 13 13 16 16 19 19 16 16 16 13 16 13 13 13 10 13 13 10 10 6 10 6 6 3
13 23 19 16 19 16 19 16 19 19 16 13 16 16 16 13 6 13 16 19 26 26 23 23 26 19 16 16 16 19 16 13 13 10 10 10 6 6 6 6 3 0 0
19 19 19 19 19 26 16 16 19 16 16 13 16 19 16 19 13 19 23 23 26 29 26 26 26 23 19 16 13 16 16 10 10 10 10 10 10 6 3 3 0 0 0
23 23 29 32 23 19 16 16 16 16 16 19 16 13 13 16 19 23 26 29 29 26 29 26 23 23 16 19 19 19 19 13 10 10 10 10 10 3 3 3 3 3 0
23 23 29 23 19 23 23 13 13 13 16 13 13 13 13 13 16 16 26 26 26 26 23 19 19 16 16 16 16 19 19 16 16 13 13 10 6 3 3 3 3 3 3
19 23 23 19 16 19 16 19 19 16 23 16 16 13 13 13 16 6 16 23 23 23 23 19 19 16 16 16 10 13 16 13 16 16 16 16 16 13 10 3 3 3 6
16 16 19 19 23 16 16 23 23 23 19 19 19 19 19 16 6 6 6 10 13 19 19 19 19 23 16 19 16 6 0 0 6 16 16 16 16 16 13 10 6 6 6
16 16 16 19 16 19 23 29 29 29 19 19 16 13 16 10 6 3 3 10 10 10 16 19 23 26 23 23 19 16 16 16 16 13 16 16 16 16 16 13 13 13 10
16 19 19 16 16 19 23 26 26 19 19 19 16 16 16 13 10 3 3 10 10 13 13 16 19 19 13 3 10 16 16 16 10 6 6 10 6 3 6 10 13 13 16
26 19 19 19 19 19 19 16 16 19 19 19 19 19 16 19 10 6 3 10 13 13 16 16 10 10 6 0 6 13 13 16 13 10 6 6 6 6 3 3 16 16 16
26 26 19 19 19 26 19 16 16 16 13 10 13 16 19 19 13 6 3 10 13 16 19 19 16 6 0 0 0 6 10 10 10 10 10 13 10 6 10 10 13 16 13
23 26 19 19 19 23 19 16 16 19 16 13 13 13 16 16 10 10 3 3 10 13 16 19 16 6 3 0 0 3 0 0 3 6 6 10 10 13 13 10 10 13 13
29 26 26 23 23 19 16 16 16 16 13 13 13 13 13 13 10 10 6 3 0 6 13 13 6 3 0 3 0 0 0 0 0 6 10 10 10 10 10 3 3 3 10
32 29 23 26 19 19 16 16 19 13 16 13 13 13 13 19 16 13 16 16 0 0 3 6 3 0 3 6 6 6 3 3 6 6 6 3 6 3 3 0 3 3 3
29 29 23 19 16 16 16 16 16 13 19 19 16 19 19 19 13 13 16 16 16 10 6 6 6 6 10 10 10 6 3 3 3 3 3 3 6 6 3 0 0 3 3
29 26 26 19 23 16 16 6 3 3 3 3 6 6 13 6 6 6 6 6 3 3 6 6 6 10 10 6 3 0 0 3 3 3 3 3 3 3 3 3 3 3 3
32 26 23 23 19 19 19 19 23 3 0 0 3 6 6 3 3 0 0 0 0 0 6 6 3 3 0 0 0 0 3 3 3 3 3 3 3 3 3 3 3 3 3
23 23 23 26 26 29 26 26 23 19 19 13 0 0 0 0 0 0 0 0 0 0 3 3 0 0 0 0 0 0 3 3 6 6 3 3 3 3 3 3 6 0 0
23 23 23 26 23 26 26 23 19 16 16 13 3 3 0 0 0 0 0 0 0 0 0 0 0 0 0 0 0 0 3 3 3 6 6 6 3 0 0 3 3 0 0
19 19 19 19 23 23 23 19 16 13 13 10 3 3 3 0 0 0 0 0 0 0 0 0 0 0 0 0 3 3 3 3 3 6 3 3 3 0 3 0 0 0 0
3 3 3 19 23 23 23 16 16 10 6 10 10 3 3 3 3 0 0 0 0 0 0 0 0 0 0 0 3 3 3 0 0 0 3 3 3 0 0 0 0 0 0
3 10 6 10 10 10 13 13 10 10 6 6 3 3 0 0 3 3 3 3 3 3 3 0 0 0 0 0 0 0 0 0 0 0 0 3 3 0 0 0 0 0 0
3 6 6 10 6 3 3 3 6 10 13 6 3 3 3 0 0 0 0 0 0 0 0 0 0 0 0 0 0 0 0 0 0 0 0 0 3 0 0 0 0 0 0
3 3 3 3 0 3 3 6 6 6 6 3 0 0 3 3 0 0 0 0 0 0 0 0 0 0 0 0 0 0 0 0 0 0 0 0 3 3 0 0 0 0 0
10 6 6 6 3 3 3 6 6 6 3 3 3 6 3 0 0 0 0 0 0 0 0 0 0 0 0 0 0 0 0 0 0 0 0 0 0 0 0 0 0 0 0
10 10 6 6 3 3 3 3 3 3 3 6 3 3 0 3 0 0 0 0 0 0 0 0 0 0 0 0 0 0 0 0 0 0 0 0 0 0 0 0 0 0 0

GEFSGL_con_cape1000_282.txt.gz
Probability
74 77 74 68 74 74 71 71 68 65 65 61 61 58 58 52 52 52 45 48 45 45 45 42 42 55 39 39 35 35 29 29 35 29 29 29 29 26 26 23 23 23 19
68 68 74 71 71 71 71 71 65 61 61 58 55 55 48 48 48 48 48 45 42 48 48 39 42 35 42 39 35 35 35 35 35 32 26 23 23 32 29 29 19 16 19
61 58 71 71 74 74 68 68 58 58 58 58 52 52 48 48 48 48 48 48 45 45 39 35 39 42 42 42 42 35 35 26 35 32 29 29 26 26 26 26 23 23 19
61 61 61 71 71 74 61 61 58 58 55 58 48 52 45 45 48 48 45 48 45 39 39 35 35 32 35 39 39 39 39 39 39 32 32 23 23 23 23 19 19 23 16
58 58 65 68 65 61 58 61 58 58 55 48 45 48 45 42 42 45 45 42 45 42 35 35 35 29 29 29 29 35 39 35 35 32 29 23 19 23 19 19 23 26 19
61 58 58 61 65 58 55 52 52 55 52 45 45 45 45 35 26 23 35 39 42 42 39 39 39 32 26 19 16 16 26 29 32 26 26 26 29 23 23 19 23 23 19
68 68 55 52 58 58 52 55 55 55 48 42 45 45 45 35 13 10 10 32 42 39 39 39 32 26 26 29 23 6 10 3 6 29 23 23 26 26 29 23 29 23 19
58 55 55 55 55 58 58 58 58 52 48 45 42 42 39 35 13 6 6 26 42 39 39 39 39 32 29 29 29 29 29 26 26 23 23 23 23 26 26 29 26 26 26
58 55 55 55 55 55 58 58 58 55 52 52 42 42 32 29 13 3 3 35 35 39 39 35 35 32 29 19 26 29 29 29 19 10 13 13 13 10 16 23 26 23 16
55 52 52 55 55 55 55 58 55 55 52 52 35 39 35 35 13 3 0 23 32 32 35 35 23 26 26 6 26 32 29 29 29 26 16 16 16 19 0 23 26 19 16
52 52 52 52 52 52 52 48 52 48 45 39 32 35 35 35 16 6 0 19 26 26 26 26 23 19 3 0 6 23 26 19 26 29 29 23 23 23 23 23 26 23 19
52 52 52 52 48 48 48 48 45 48 39 35 35 32 32 32 19 10 3 3 13 23 29 29 23 16 0 0 0 13 6 0 13 19 23 23 23 23 23 16 16 13 19
48 48 52 48 48 48 48 48 45 48 39 32 26 26 29 32 29 10 3 0 0 13 23 19 16 3 0 0 0 0 0 10 19 26 23 23 23 23 19 16 16 16 16
45 48 48 52 48 48 48 48 42 42 45 32 29 29 29 29 26 29 26 10 0 3 13 13 3 0 3 6 10 10 10 16 23 26 23 19 19 19 16 10 13 13 13
48 48 48 45 48 48 48 48 42 42 35 42 32 32 32 32 29 16 23 29 29 29 26 29 29 26 26 23 26 23 16 13 13 19 23 23 19 13 13 10 10 10 10
42 45 45 45 42 42 39 35 16 19 10 13 13 13 26 16 3 6 3 6 3 6 10 23 23 26 26 19 16 10 10 13 13 10 10 10 10 3 6 6 6 6 13
42 42 42 45 45 42 35 35 32 23 0 0 0 0 0 3 3 0 0 0 0 0 10 19 19 10 10 13 13 13 16 13 10 10 10 10 10 3 3 6 10 10 10
39 35 42 45 45 42 39 35 35 32 26 16 0 0 0 0 0 0 0 0 0 3 6 10 10 10 6 10 13 16 13 10 13 10 10 10 6 3 3 6 6 6 3
39 39 42 39 35 39 35 32 35 32 26 23 13 3 0 0 0 0 0 0 10 13 3 6 6 6 10 6 10 13 13 6 10 6 6 6 6 3 3 0 3 3 0
35 29 29 35 32 32 32 32 26 29 29 23 23 13 6 6 10 6 3 6 10 13 13 6 6 6 6 6 6 10 10 6 6 10 6 6 3 0 0 0 0 3 3
32 29 23 32 32 32 32 29 23 23 26 19 16 16 10 13 13 13 10 6 6 10 3 3 6 6 6 6 6 3 6 6 6 3 3 3 0 0 0 0 0 0 3
26 35 29 32 32 29 26 23 19 19 23 16 16 13 0 10 13 10 10 10 6 3 0 3 3 3 3 3 3 3 6 3 3 3 3 3 0 0 0 0 0 3 0
26 29 26 32 26 23 19 23 23 23 16 16 16 13 10 10 13 13 10 10 10 3 3 3 3 3 3 3 0 0 3 3 3 3 3 0 0 0 0 0 0 0 3
23 26 26 23 23 23 19 23 23 16 16 16 13 13 13 13 13 6 6 6 3 3 3 6 6 3 0 3 3 3 6 3 3 3 0 0 0 0 0 0 0 0 0
19 23 19 19 16 16 16 16 16 13 13 10 10 10 13 10 13 10 10 10 3 3 3 3 3 3 0 0 3 3 0 0 0 0 0 0 0 0 0 0 0 0 0
16 16 19 19 19 16 16 16 13 10 13 10 10 6 6 10 10 16 16 6 3 3 3 0 0 0 0 0 0 0 0 0 0 0 0 0 0 0 0 0 0 0 0

GEFSGL_con_cape1000_288.txt.gz
Probability
71 77 77 84 84 84 84 81 77 77 68 65 61 61 61 52 48 58 45 45 42 42 42 35 42 52 48 52 48 45 42 42 32 29 32 32 39 35 19 23 19 19 13
68 71 68 71 77 81 81 81 74 71 61 61 65 58 58 58 58 55 48 42 39 42 39 35 35 32 35 42 42 42 42 39 39 35 29 32 32 29 26 23 19 16 16
61 68 68 68 74 74 74 71 68 68 61 65 61 65 61 58 55 52 48 45 48 42 42 39 39 32 39 42 42 42 39 29 48 35 23 29 32 26 23 16 16 19 16
65 68 68 71 68 68 71 68 65 65 65 58 65 65 55 52 52 45 45 42 42 42 42 42 39 35 39 42 35 39 39 39 42 35 32 26 26 26 23 16 19 16 16
68 71 68 71 71 68 65 68 65 61 58 61 61 52 48 48 45 45 42 42 42 42 39 35 32 29 29 29 26 32 35 39 35 35 29 35 26 26 19 19 16 19 19
68 68 71 71 71 71 71 68 65 65 61 65 58 52 52 42 29 26 35 39 42 42 35 35 32 29 29 23 26 26 26 29 29 39 32 29 29 29 26 16 19 19 16
65 68 68 68 65 68 68 61 61 61 58 61 61 55 52 39 19 16 16 32 32 35 35 35 32 32 29 26 26 19 16 13 13 23 29 29 26 26 26 23 16 16 16
61 61 65 65 65 65 71 65 65 65 61 65 58 55 52 35 19 6 10 26 35 35 35 32 42 35 29 32 29 32 32 26 26 23 23 23 23 23 23 19 19 16 16
61 61 61 61 65 65 68 61 61 61 61 61 61 55 55 45 16 10 3 32 32 32 32 29 35 32 23 16 29 32 32 32 19 16 13 16 13 10 10 10 19 16 16
61 58 58 58 61 61 65 58 58 58 58 55 58 52 48 45 16 10 3 29 29 32 35 29 23 23 19 13 19 32 26 29 26 19 16 16 16 16 6 10 19 16 13
55 55 55 55 55 55 58 61 58 55 52 55 52 52 45 42 23 13 3 32 32 35 32 29 26 16 3 10 10 23 19 19 19 29 26 26 26 19 19 19 23 19 13
55 52 52 55 52 52 48 48 52 52 52 45 48 45 42 42 29 13 3 3 13 32 32 29 16 6 3 0 3 10 6 6 10 13 16 26 23 23 23 16 13 16 19
55 55 55 55 58 48 48 48 45 45 45 45 45 39 39 39 35 16 3 3 3 10 19 19 6 3 0 0 0 0 0 6 10 10 16 23 23 23 16 19 16 13 19
61 61 61 55 52 48 48 48 45 45 42 45 39 35 35 39 35 26 13 6 3 3 6 10 0 0 3 6 3 3 6 6 10 13 13 19 19 19 13 13 16 13 10
58 58 55 48 48 52 45 48 45 48 48 42 45 39 39 39 29 26 26 23 19 13 16 13 23 23 23 23 23 23 13 10 10 10 13 13 13 13 16 10 13 10 3
55 48 39 42 42 42 42 35 16 23 6 6 13 32 26 13 6 3 6 3 3 3 16 26 26 26 16 19 16 10 10 10 6 13 10 10 10 10 13 13 13 10 6
55 48 42 42 39 39 35 39 29 13 3 3 0 0 0 3 0 0 0 0 0 3 16 19 29 23 19 10 13 13 13 6 10 6 10 13 13 10 10 10 10 10 6
45 32 35 35 35 32 39 39 39 32 26 19 0 0 0 0 0 0 0 3 3 3 6 13 16 19 19 16 16 13 13 13 16 10 6 6 13 10 10 6 6 3 3
32 35 35 35 32 32 32 32 32 32 32 26 16 0 0 0 0 0 0 6 10 6 6 10 10 16 16 13 13 10 10 10 13 13 10 10 6 10 6 3 3 3 3
35 26 29 35 35 32 32 32 32 29 26 29 16 6 0 0 3 0 3 10 10 6 10 16 16 16 13 10 10 10 10 10 10 10 6 6 3 0 0 3 3 3 3
26 26 23 32 32 32 32 32 32 29 29 23 16 10 6 10 10 10 10 6 6 6 16 16 13 13 13 10 10 10 10 6 6 6 6 3 0 0 0 0 3 3 3
23 26 26 26 26 29 35 35 29 29 26 19 19 13 0 10 13 16 13 10 10 13 10 13 13 13 10 3 6 3 3 3 6 3 3 3 0 3 3 0 0 3 3
19 26 26 26 26 29 29 32 29 32 23 19 16 13 6 13 16 16 16 16 13 6 10 13 13 10 13 10 13 6 3 0 0 3 3 0 0 3 3 3 3 3 3
19 23 26 29 29 29 26 26 26 23 13 16 16 16 16 13 13 13 10 13 13 10 10 10 10 13 16 10 3 3 0 0 0 0 0 0 0 3 3 3 3 3 3
19 23 26 29 29 26 26 19 19 16 13 13 13 16 16 13 10 10 10 13 13 13 13 10 13 13 16 6 3 0 0 0 0 0 0 0 0 0 0 3 3 3 3
19 19 19 26 26 23 19 19 19 16 13 13 13 13 6 10 13 10 10 10 10 10 13 13 13 13 10 6 3 0 0 0 0 0 0 0 0 0 0 3 3 3 3

GEFSGL_con_cape1000_294.txt.gz
Probability
39 42 42 32 39 39 32 29 29 32 32 32 29 32 32 32 26 29 32 35 26 26 26 19 16 13 13 13 13 13 13 13 13 13 13 10 13 10 10 10 10 10 10
35 39 35 32 39 39 35 32 29 32 29 32 35 42 39 29 23 29 32 32 29 29 26 16 16 23 19 16 16 19 19 16 16 16 16 16 16 13 13 13 10 13 13
39 42 42 39 35 42 42 35 39 35 39 32 39 39 35 29 26 26 26 26 26 29 26 26 23 23 23 19 16 19 16 19 16 13 16 16 13 13 10 10 10 13 13
42 42 39 29 32 35 32 35 35 39 39 42 42 35 32 29 26 23 26 26 26 26 23 19 23 23 23 23 26 23 19 19 19 16 16 10 10 10 10 10 10 10 13
35 35 32 29 26 26 29 35 35 39 39 35 35 39 32 29 29 29 29 26 23 23 19 16 16 16 16 23 26 26 23 16 16 13 13 13 10 10 10 10 13 10 6
32 32 23 26 32 35 32 35 35 39 39 32 32 35 39 35 29 19 23 26 19 16 13 16 16 16 16 16 16 16 16 16 19 13 13 13 10 10 6 10 10 6 6
23 29 26 26 32 35 35 35 35 35 32 32 32 29 26 26 23 16 13 16 13 13 10 16 19 19 13 13 16 10 6 6 6 13 13 13 10 6 10 6 6 6 6
29 26 35 35 32 35 35 35 35 35 35 29 26 23 23 19 23 13 6 6 10 6 6 6 6 16 16 13 13 16 16 13 13 6 10 10 10 10 6 6 3 6 3
29 29 35 35 39 39 35 32 35 35 39 32 23 19 23 16 13 10 3 3 6 6 3 3 6 10 13 3 6 13 13 13 16 10 6 6 6 6 3 3 3 0 0
29 35 32 39 35 35 35 32 32 32 39 32 23 19 23 16 16 10 6 6 6 3 3 3 3 3 6 3 6 10 10 10 10 10 10 3 3 3 0 0 3 0 0
29 39 42 42 42 39 39 35 35 35 32 29 19 16 16 13 13 6 3 6 6 6 10 10 3 3 3 3 3 6 10 6 6 6 6 3 6 3 3 0 0 0 0
29 39 42 45 42 42 35 32 32 35 29 23 19 19 19 16 13 13 3 3 6 6 6 10 10 3 3 3 3 3 0 0 3 3 3 3 3 3 3 0 0 0 0
26 32 32 35 39 39 39 35 32 29 26 26 23 19 19 19 16 10 3 3 3 6 10 10 6 3 3 3 3 0 0 0 3 3 6 3 0 0 0 0 0 3 3
19 23 29 35 35 35 32 29 32 32 29 26 23 23 19 16 13 13 13 10 3 3 3 6 3 3 3 3 0 0 0 3 3 0 0 0 0 3 3 3 3 3 3
16 16 23 29 35 32 23 23 26 29 26 23 19 19 13 13 13 10 10 6 10 10 6 3 3 3 3 3 0 0 0 0 0 0 0 0 0 0 0 6 6 3 3
13 19 19 23 29 35 29 19 3 3 10 6 10 16 13 13 10 6 3 3 6 0 3 6 6 3 3 0 0 0 0 0 0 0 0 0 0 0 3 3 3 0 0
13 13 19 19 23 26 23 16 10 0 0 0 0 0 0 6 3 0 0 0 0 0 0 6 6 6 3 3 3 0 0 0 0 0 0 0 0 3 3 0 0 0 0
13 13 10 16 19 19 29 29 13 10 6 0 0 0 0 0 0 0 0 0 0 0 0 3 3 0 0 0 0 0 0 0 0 0 0 0 3 3 0 0 0 0 0
10 10 10 13 19 19 26 29 19 13 10 6 0 0 0 0 0 0 0 0 0 0 0 0 0 0 0 3 3 0 0 0 0 0 0 3 0 0 0 0 0 0 0
6 6 10 13 16 19 23 23 19 19 13 10 3 3 0 0 0 0 0 0 3 0 0 0 0 0 0 3 3 3 0 0 0 0 0 0 0 0 0 0 0 0 0
6 6 6 16 16 23 23 19 16 23 16 16 10 3 0 0 0 0 0 0 0 0 0 0 0 0 0 3 3 3 0 0 0 0 0 0 0 0 0 0 0 0 0
6 6 10 10 13 19 23 23 16 16 16 13 3 3 0 0 0 0 0 0 0 0 0 0 0 0 0 0 0 0 0 0 0 0 0 0 0 0 0 0 0 0 0
6 10 10 10 10 10 16 19 23 19 13 13 10 3 0 0 0 0 0 0 0 0 0 0 0 0 0 0 0 0 0 0 0 0 0 0 0 0 0 0 0 0 0
10 6 6 10 10 13 13 16 19 16 16 13 10 6 0 0 0 0 0 0 0 0 0 0 0 0 0 0 0 0 0 0 0 0 0 0 0 0 0 0 0 0 0
10 10 6 6 6 6 13 13 13 16 16 13 10 10 6 0 0 0 0 0 0 0 0 0 0 0 0 0 0 0 0 0 0 0 0 0 0 0 0 0 0 0 0
6 6 3 3 3 3 10 10 10 13 16 13 13 10 10 6 0 0 0 0 3 3 0 0 0 0 0 0 0 0 0 0 0 0 0 0 0 0 0 0 0 0 0

GEFSGL_con_cape1000_300.txt.gz
Probability
6 10 13 13 6 6 6 10 6 6 10 10 16 19 16 23 26 26 16 16 13 16 13 16 16 19 16 13 13 13 13 13 16 16 13 16 16 16 13 13 13 10 10
13 16 16 10 6 6 10 10 6 6 13 10 10 13 13 23 23 23 16 19 16 16 19 26 19 19 13 13 16 16 16 16 16 16 16 16 19 19 13 13 10 6 10
10 13 10 3 3 3 6 10 10 13 16 13 19 19 23 23 23 19 16 19 19 19 26 26 23 19 13 16 19 16 16 13 16 16 16 19 19 10 13 10 3 3 3
10 13 13 10 3 3 3 6 10 6 10 19 26 26 26 23 26 19 13 19 19 23 23 23 19 19 19 16 16 19 16 16 16 13 13 19 19 16 10 10 6 10 6
13 10 16 16 13 13 6 6 13 13 16 23 23 23 23 32 26 19 19 16 16 19 19 19 19 19 13 13 16 19 19 16 19 19 19 16 19 13 13 13 13 6 6
16 16 13 16 16 19 13 19 16 13 16 13 13 19 16 19 16 10 16 16 16 16 19 16 16 13 10 3 3 3 3 16 19 19 19 19 19 13 13 13 10 10 10
19 16 16 16 19 19 23 19 19 23 23 19 13 13 16 16 3 3 3 13 16 16 16 16 16 13 6 10 3 3 3 0 6 16 19 19 16 16 13 10 10 10 10
19 26 23 23 19 26 26 23 23 26 23 23 19 13 16 13 3 0 0 0 16 16 16 16 16 19 10 10 10 10 16 10 13 10 13 16 13 10 10 10 10 10 6
19 16 19 19 26 29 26 26 26 26 23 19 16 19 16 13 10 3 0 6 10 10 10 10 10 6 6 3 10 10 10 13 3 3 6 3 3 0 3 10 6 6 10
13 13 16 23 23 26 29 26 26 26 26 16 16 16 16 16 6 6 3 6 10 10 10 10 3 3 3 3 3 6 10 10 6 10 3 3 3 3 0 3 10 6 10
13 13 16 16 26 29 29 29 29 29 26 19 16 16 16 13 10 6 3 6 10 13 13 13 10 3 3 0 0 3 3 6 6 6 6 6 6 10 10 6 6 6 6
3 13 19 16 23 29 26 29 26 29 23 19 16 13 13 13 6 6 6 3 6 13 13 13 10 3 3 0 0 0 0 0 3 3 6 6 6 10 6 3 3 0 3
6 10 10 13 19 23 26 29 26 29 26 23 19 16 13 10 6 3 3 0 0 0 6 6 6 0 0 0 0 0 3 3 3 3 3 3 3 3 3 0 0 3 3
6 10 10 10 13 19 19 26 23 23 23 19 23 13 13 13 10 6 6 3 0 0 0 3 0 0 0 0 0 3 3 3 3 3 3 3 3 3 0 0 3 3 3
6 6 6 10 13 19 19 19 19 19 23 23 19 19 16 13 13 10 10 10 3 0 0 3 3 0 0 3 3 3 3 0 0 3 3 3 0 0 0 0 3 6 3
6 6 6 10 16 16 19 16 16 13 10 6 6 13 13 10 3 3 0 0 0 0 0 6 3 3 3 0 0 0 0 0 0 0 0 0 0 0 0 3 3 3 3
6 6 10 13 13 13 19 19 16 13 3 0 0 0 0 0 0 0 0 0 0 0 0 3 3 3 3 3 0 0 0 0 0 0 0 0 0 0 3 3 0 0 3
6 6 13 13 13 13 13 19 16 16 16 13 3 0 0 0 0 0 0 0 0 0 3 3 3 3 3 0 0 0 0 0 0 0 0 0 0 0 3 0 0 0 0
10 10 10 10 13 13 13 13 19 16 16 19 6 0 0 0 0 0 0 0 3 0 0 3 3 3 3 0 0 0 0 0 0 0 0 0 0 0 0 0 0 0 0
6 10 10 10 10 10 13 13 16 13 13 10 10 10 0 0 0 0 0 0 0 0 0 0 0 3 3 0 0 0 0 0 0 0 0 0 0 0 0 0 0 0 0
6 6 10 10 10 10 10 6 13 13 13 13 10 13 0 0 0 0 0 0 0 0 0 0 0 0 0 0 0 0 0 0 0 0 0 0 0 0 0 0 0 0 0
3 3 3 10 10 10 6 6 10 13 13 13 10 6 0 0 3 3 3 0 0 0 0 0 0 0 0 0 0 0 0 0 0 0 0 0 0 0 0 0 0 0 0
3 3 3 3 3 3 3 6 6 10 10 13 13 6 0 0 0 3 3 3 3 0 0 0 0 0 0 0 0 0 0 0 0 0 0 0 0 0 0 0 0 0 0
3 3 3 3 3 3 3 3 3 6 10 10 10 6 10 0 0 0 0 3 3 3 0 0 0 0 0 0 0 0 0 0 0 0 0 0 0 0 0 0 0 0 0
3 3 3 10 6 6 3 3 3 3 0 3 6 6 6 6 0 0 0 0 3 3 0 0 0 0 0 0 0 0 0 0 0 0 0 0 0 0 0 0 0 0 0
3 3 6 10 6 6 6 0 0 0 0 0 0 6 6 6 3 0 0 0 0 0 0 0 0 0 0 0 0 0 0 0 0 0 0 0 0 0 0 0 0 0 0

GEFSGL_con_cape1000_306.txt.gz
Probability
52 55 52 48 52 55 58 52 55 58 55 52 52 48 52 48 39 48 39 39 39 35 35 35 39 39 39 35 35 39 35 39 39 29 26 35 35 32 32 29 26 26 23
58 58 58 55 52 52 52 55 55 55 55 52 52 45 42 42 42 42 42 35 42 35 35 35 39 39 39 42 39 39 39 42 39 39 26 32 32 35 32 35 23 19 26
52 52 52 45 52 52 55 55 55 52 48 48 48 42 39 39 39 42 39 39 32 39 39 39 39 39 42 42 48 35 39 32 42 42 29 32 23 29 35 29 23 26 23
52 52 48 45 52 52 55 52 52 52 52 48 48 45 42 42 39 39 39 45 39 39 39 42 42 42 42 42 42 42 39 35 42 39 35 26 26 29 32 26 23 29 23
55 55 52 52 52 52 48 55 55 55 52 52 48 48 42 39 39 35 39 35 32 35 42 45 42 39 29 35 35 39 39 42 39 32 29 19 19 35 26 19 23 26 23
58 55 55 55 55 52 52 52 55 55 55 52 52 48 48 35 13 13 32 39 32 35 42 39 42 39 19 10 6 6 19 32 23 26 26 26 32 35 39 35 23 23 16
55 58 55 58 52 52 52 52 52 55 52 52 52 52 52 39 19 3 6 29 32 35 39 39 32 29 26 26 16 3 3 0 3 32 26 26 32 35 35 35 32 29 23
52 48 48 48 48 52 52 48 48 48 52 52 52 48 52 32 16 3 3 16 29 29 32 32 29 29 26 29 29 23 29 26 19 23 23 29 29 35 35 32 29 23 23
48 45 45 42 42 48 48 52 52 48 48 52 48 48 45 39 16 3 0 29 23 26 26 26 29 29 23 16 26 29 29 29 19 3 6 6 6 6 13 16 19 16 16
45 42 45 45 42 42 45 48 48 48 48 45 48 45 45 45 26 3 3 19 23 23 26 26 23 23 16 10 26 26 26 26 26 19 19 6 13 10 3 16 16 13 10
42 45 45 45 45 42 42 45 48 45 42 39 39 39 39 42 26 6 3 29 19 19 19 19 19 6 3 3 3 19 23 19 19 23 23 19 13 13 13 13 16 16 13
42 42 45 45 42 42 42 45 42 42 39 39 39 42 39 35 23 10 3 6 16 26 19 23 16 0 0 0 3 10 6 0 19 23 23 16 10 6 13 16 16 16 16
32 32 35 35 42 39 39 39 39 42 39 39 39 42 42 39 26 10 3 0 0 19 26 16 6 0 0 0 0 0 0 10 16 23 16 13 6 6 13 23 19 16 16
29 29 32 29 29 29 35 32 35 35 39 35 39 35 39 35 29 23 19 3 3 3 10 10 0 0 0 0 0 0 6 13 23 16 13 13 13 10 16 16 16 10 10
26 23 26 23 23 26 29 29 23 29 23 29 32 35 39 35 26 23 19 23 19 19 16 26 19 13 13 13 13 10 16 16 16 13 19 13 10 13 16 13 16 10 10
23 23 23 19 23 23 19 19 16 16 13 10 16 13 23 13 3 3 3 0 3 3 6 23 26 23 19 10 10 10 10 13 13 16 16 16 16 13 13 10 10 6 6
19 19 23 16 19 19 16 16 16 13 6 6 3 0 0 0 0 0 0 0 0 0 6 19 26 23 23 23 13 10 13 13 19 10 13 16 16 16 10 13 10 6 6
13 13 16 16 16 16 19 19 16 16 19 23 6 0 0 0 0 0 0 0 0 0 6 19 16 23 23 13 13 10 13 10 13 16 13 13 13 16 13 13 10 6 6
10 13 13 13 16 16 16 16 16 13 16 16 19 10 0 0 0 0 0 3 10 6 6 16 19 19 23 19 16 13 16 13 13 19 13 16 13 16 13 10 6 6 3
10 10 10 13 13 13 16 16 19 16 16 16 13 13 6 3 3 3 0 3 13 13 10 19 19 19 19 23 19 16 13 13 13 10 10 16 16 13 13 6 6 6 6
10 10 6 10 10 10 13 13 13 16 16 16 16 13 10 10 10 6 6 6 10 13 16 16 16 16 19 19 19 13 10 10 10 6 6 10 10 6 6 0 6 6 0
6 6 6 10 10 10 10 10 10 10 13 13 16 13 3 13 13 10 6 3 10 10 16 16 16 16 16 13 10 10 10 6 6 6 10 6 10 3 6 3 6 10 6
6 3 6 6 6 3 6 10 10 10 13 13 13 10 10 10 10 10 10 13 6 6 10 13 16 16 10 10 10 10 10 10 6 10 6 6 3 3 6 6 6 0 0
3 3 3 3 3 3 3 6 6 6 6 6 6 3 3 3 6 10 10 10 13 13 10 13 13 10 10 13 10 10 6 6 6 6 10 10 0 3 6 6 0 0 0
6 3 3 3 3 0 0 0 0 3 3 6 6 3 3 3 3 3 3 3 10 13 10 10 10 10 10 10 10 10 3 0 0 3 13 10 10 6 6 3 0 0 0
0 0 0 0 0 0 0 0 0 0 0 0 3 6 3 3 3 3 3 3 3 3 10 10 10 10 10 10 10 6 0 0 0 0 0 10 6 6 6 0 0 0 3

GEFSGL_con_cape1000_312.txt.gz
Probability
55 55 52 52 58 61 61 65 65 65 61 58 48 52 52 52 48 42 42 42 42 42 45 45 45 48 48 45 52 52 52 48 45 45 48 42 42 48 29 32 29 26 16
58 52 52 52 55 58 61 65 65 65 61 65 58 58 52 52 52 45 42 39 39 39 39 42 39 32 48 45 48 48 48 48 42 39 39 39 35 42 35 39 26 23 23
55 55 52 55 55 55 61 58 61 58 55 61 58 52 55 52 45 42 32 32 29 29 32 32 32 32 39 39 42 39 45 39 45 35 32 42 35 32 32 32 29 29 19
52 52 52 52 52 52 52 58 55 55 55 55 58 61 52 52 42 35 39 35 32 32 29 29 29 29 32 35 29 35 35 39 39 35 35 26 26 29 29 32 23 26 26
55 52 55 58 58 58 58 58 58 55 52 61 58 58 55 39 35 42 39 29 32 32 32 32 26 23 23 19 23 32 35 45 39 39 35 26 29 29 26 29 23 23 26
55 61 58 58 58 58 61 61 61 55 55 55 55 55 48 42 29 19 32 35 42 39 35 32 23 23 19 16 13 13 23 32 29 35 29 29 26 26 26 23 26 26 19
52 55 55 58 55 58 55 58 52 55 55 52 52 45 48 39 19 13 6 32 35 35 35 35 19 23 23 29 16 3 3 3 6 32 29 29 29 29 26 26 29 26 23
48 52 52 52 55 52 52 52 61 61 55 55 52 48 45 39 26 13 6 23 29 32 32 35 32 29 26 26 32 26 26 23 19 13 32 32 32 32 32 32 26 26 26
48 48 52 55 48 52 48 52 55 58 58 52 55 52 48 35 23 16 0 29 39 35 29 29 29 29 26 19 23 32 35 29 19 13 16 19 6 10 13 23 23 23 13
48 45 45 48 48 48 52 58 48 55 48 48 42 42 42 39 29 16 0 26 35 39 35 29 26 23 26 16 23 29 29 29 26 23 16 6 6 10 3 13 19 19 19
45 48 52 48 48 45 52 58 55 55 52 45 42 45 48 48 29 19 6 26 39 39 29 29 26 16 10 6 13 23 23 26 29 26 29 29 29 19 19 10 16 16 19
48 52 52 48 45 45 45 58 52 55 45 45 45 45 45 42 35 23 6 3 10 39 39 26 26 3 0 0 0 10 3 0 23 23 29 29 26 23 23 19 16 19 19
48 48 48 48 45 45 45 45 45 48 45 42 45 45 45 42 35 16 6 0 0 6 29 16 3 0 0 0 0 0 0 3 16 10 16 23 23 23 19 19 23 23 23
45 45 42 39 39 42 39 35 32 32 32 32 42 39 35 39 32 29 23 10 3 0 3 3 0 0 0 3 3 0 0 6 16 13 16 19 19 19 19 19 16 16 19
42 35 35 26 29 35 29 26 29 29 26 26 29 29 32 32 23 10 10 6 13 16 10 10 13 13 10 16 10 10 13 13 6 19 19 23 19 19 19 19 16 16 19
35 35 26 23 26 26 26 23 13 13 16 13 16 19 16 13 13 0 0 0 0 3 6 13 13 16 16 16 13 16 13 13 16 19 19 19 16 13 16 16 16 19 19
29 29 23 23 23 26 23 26 29 13 10 13 6 3 3 0 0 0 0 0 0 0 6 10 13 13 13 13 16 16 13 13 13 16 19 19 19 16 16 16 19 16 13
19 13 23 29 19 19 19 19 16 16 16 19 10 0 0 0 0 0 0 0 6 3 6 13 19 16 16 13 13 13 13 16 19 19 13 13 10 13 19 19 19 13 13
19 16 19 19 13 16 16 16 16 16 16 19 13 3 0 0 0 0 0 0 6 6 6 10 13 13 19 13 13 16 16 19 19 23 16 16 13 10 10 13 10 6 3
16 13 10 13 10 6 10 10 6 10 10 13 16 10 3 0 3 0 0 0 6 6 6 6 6 13 16 16 16 16 16 13 16 16 13 13 13 13 13 10 6 3 3
6 3 6 6 6 6 10 10 6 3 3 3 10 6 6 3 3 3 3 3 6 3 3 3 3 3 13 16 13 16 16 16 23 23 13 13 6 10 10 10 10 3 3
3 6 6 10 13 13 13 13 3 3 3 3 3 3 3 6 6 6 6 3 3 3 3 3 3 3 6 13 13 13 16 13 16 19 19 16 13 10 6 6 3 3 3
10 3 3 6 10 3 6 6 6 6 6 3 3 3 3 3 10 6 6 6 6 6 6 3 3 3 3 6 16 16 10 10 10 13 10 10 10 10 6 6 3 3 3
6 0 0 0 6 6 3 10 6 3 0 0 0 0 0 16 6 3 0 0 3 3 3 6 6 3 6 10 10 13 10 10 10 6 10 6 6 6 3 3 3 0 0
6 3 0 3 3 3 6 6 3 3 0 0 3 0 6 6 6 3 3 3 3 0 3 3 3 6 6 10 10 10 3 3 0 6 6 6 6 6 6 6 3 3 0
3 3 0 3 6 6 6 6 6 3 0 0 0 10 13 6 6 6 10 3 3 3 3 3 3 3 6 10 10 10 3 0 0 0 3 6 6 6 6 6 6 3 6

GEFSGL_con_cape1000_318.txt.gz
Probability
35 32 32 35 32 35 35 35 35 35 29 29 29 23 19 16 13 13 13 10 16 16 16 16 16 13 10 10 6 6 10 10 13 13 10 13 10 19 16 10 10 10 10
35 32 32 39 35 35 35 29 29 29 29 26 23 19 19 16 13 16 16 16 16 16 16 16 16 16 16 16 16 13 10 10 13 16 13 13 16 13 10 10 10 10 10
32 32 29 32 35 39 32 32 29 29 29 29 19 19 16 16 16 16 16 16 16 16 16 16 16 16 16 13 16 16 16 16 16 16 16 16 16 13 10 10 10 10 10
26 26 26 32 32 39 39 35 39 32 32 29 32 26 16 19 19 16 16 16 16 16 16 16 16 16 16 13 16 16 16 19 13 10 10 6 6 10 10 10 6 10 10
29 29 26 26 26 29 29 29 35 32 32 35 29 29 29 23 19 19 13 16 16 16 16 16 16 16 16 16 19 16 16 16 10 6 6 6 6 6 13 3 3 6 3
26 29 29 29 26 26 23 26 29 29 29 32 32 32 29 32 29 19 16 16 13 13 13 13 16 16 16 16 13 13 13 13 16 13 10 10 10 3 6 6 3 3 3
29 29 29 26 26 26 29 29 29 29 29 29 23 29 29 26 23 23 16 16 13 13 13 13 16 16 16 16 16 16 13 10 6 13 10 10 10 6 6 6 3 3 6
23 32 32 29 23 23 29 29 29 29 29 26 29 19 29 29 23 13 10 13 10 10 10 13 10 13 13 16 16 16 16 16 16 6 3 10 10 3 6 3 3 3 3
26 32 29 29 29 26 29 23 26 26 26 26 23 19 23 23 19 13 6 13 13 10 10 10 10 6 10 6 16 16 16 16 13 10 6 10 3 3 0 0 0 3 6
29 26 26 26 32 32 29 26 26 29 29 29 29 23 16 23 23 13 6 13 16 16 13 16 16 10 10 3 6 10 16 16 13 13 6 3 0 0 0 0 0 3 6
29 26 26 32 29 32 32 32 26 26 26 26 29 26 23 23 23 10 10 10 16 16 13 16 16 16 6 0 0 6 10 10 6 3 0 0 0 0 0 3 3 3 6
32 26 26 32 26 29 29 26 23 23 26 26 26 26 23 23 16 13 6 0 6 6 3 6 10 10 3 3 0 3 6 0 0 0 0 0 0 0 0 0 0 0 6
26 23 23 19 19 19 19 23 23 23 23 23 23 26 19 16 16 13 6 3 0 3 3 6 3 3 0 0 0 0 0 0 0 0 0 0 3 3 3 0 0 0 0
19 19 19 19 19 19 19 19 19 19 19 19 19 19 16 19 16 13 6 0 0 0 0 0 0 0 0 0 0 0 0 0 0 0 0 0 3 0 0 0 0 0 0
16 19 19 16 16 16 16 19 16 13 10 16 16 13 13 13 13 10 10 6 0 0 0 3 0 0 0 0 0 0 0 0 0 0 0 0 0 0 0 0 0 0 0
13 10 13 13 13 13 13 10 6 10 3 3 6 13 13 13 13 6 3 6 0 0 0 3 3 3 3 3 3 3 6 6 3 0 0 0 0 0 0 0 0 0 3
10 10 10 13 13 13 13 10 10 6 3 3 0 0 3 3 3 3 0 0 0 0 3 3 3 3 3 3 3 3 3 3 6 6 3 3 3 3 0 0 0 0 3
6 6 6 6 13 13 10 13 10 10 13 10 0 0 0 0 0 0 0 0 0 0 3 3 3 3 3 3 3 3 3 3 3 3 3 3 3 3 0 0 0 0 0
3 3 3 3 6 6 10 10 10 10 10 6 3 0 0 0 0 0 0 0 0 0 0 0 3 3 3 3 3 3 3 3 3 3 3 3 3 3 0 0 0 0 0
3 3 0 3 0 3 6 6 10 10 10 10 3 3 0 0 0 0 0 0 0 0 0 0 0 3 3 3 3 3 3 3 3 3 3 3 3 0 0 0 0 0 0
3 3 0 3 0 3 3 6 6 6 6 6 6 3 0 0 0 0 0 0 0 0 0 0 0 3 3 3 3 3 3 6 3 3 3 3 0 0 0 0 0 0 0
0 0 0 0 0 0 3 3 6 6 6 6 3 3 0 0 0 0 0 0 0 0 0 0 0 3 3 3 3 3 3 3 3 3 0 0 0 0 0 0 0 0 0
0 0 0 0 0 0 0 3 3 3 6 3 3 3 0 0 0 0 0 0 0 0 0 0 0 0 0 0 0 3 3 3 3 3 3 0 0 0 0 0 0 0 0
0 0 0 0 0 0 0 0 0 0 0 0 0 0 0 0 0 0 0 0 0 0 0 0 0 0 0 0 0 0 0 0 0 0 3 3 3 0 0 0 0 0 0
0 0 0 0 0 0 0 0 0 0 0 0 0 0 0 0 0 0 0 0 0 0 0 0 0 0 0 0 0 0 0 0 0 0 0 0 3 3 0 0 0 0 0
0 0 0 0 0 0 0 0 0 0 0 0 0 0 0 0 0 0 0 0 0 0 0 0 0 0 0 0 0 0 0 0 0 0 0 0 0 0 0 0 0 0 0

GEFSGL_con_cape1000_324.txt.gz
Probability
19 16 13 10 16 16 19 23 19 26 26 23 19 16 16 16 10 10 10 10 13 13 13 16 16 16 16 16 10 10 6 6 16 16 13 10 16 16 16 16 10 10 10
19 16 13 10 6 16 23 23 16 19 26 16 16 16 16 16 13 10 10 13 13 13 13 13 16 16 16 16 16 16 16 16 16 16 16 19 19 16 16 16 10 10 10
16 19 13 13 16 16 23 19 23 23 16 19 16 16 16 16 16 16 13 13 13 13 13 13 16 16 16 16 19 16 13 16 16 16 16 16 19 10 16 10 13 16 10
29 23 16 19 19 19 19 23 19 23 19 19 19 16 13 13 16 13 16 13 13 13 13 16 16 16 16 16 19 19 16 16 16 19 19 19 13 10 16 19 13 13 13
26 26 16 16 19 19 16 16 23 23 23 19 19 13 13 13 16 13 13 16 16 13 13 16 16 16 16 16 16 19 19 16 19 19 19 19 16 13 16 19 19 16 10
26 23 19 16 23 16 16 19 19 19 23 16 16 16 13 10 10 10 10 13 13 16 16 13 13 13 13 13 13 10 13 19 19 19 19 19 19 19 16 10 13 13 16
23 23 19 13 19 19 23 26 23 16 16 16 13 13 13 13 6 6 3 10 16 19 19 19 16 16 13 16 16 6 6 3 3 19 19 19 19 16 16 13 13 6 16
23 19 16 13 13 16 16 23 23 19 19 16 16 13 13 16 13 10 3 3 10 13 13 16 19 23 16 16 16 16 13 16 13 13 19 19 19 16 16 19 19 10 6
23 16 16 16 13 10 16 19 19 19 16 16 16 16 13 13 6 3 3 10 13 13 16 16 16 13 10 3 3 6 13 13 13 3 6 6 6 3 0 3 6 10 6
19 16 16 13 10 10 13 19 23 23 19 16 16 13 13 10 10 6 3 6 16 13 16 16 6 3 0 0 3 3 6 6 10 16 16 6 3 0 0 0 3 6 6
10 10 16 16 13 13 13 16 19 26 19 16 16 13 13 13 10 3 3 6 10 13 13 6 6 0 0 0 0 0 3 3 3 6 6 6 6 3 3 3 3 3 3
13 13 10 10 10 19 16 16 19 23 23 23 16 16 16 13 10 10 0 0 0 10 6 6 6 3 0 0 0 0 0 0 3 3 6 0 3 3 0 3 0 0 0
13 13 13 10 13 13 13 13 16 16 19 19 16 13 10 6 6 6 3 0 0 3 6 3 3 3 0 0 0 0 0 3 3 3 3 0 3 6 10 3 3 0 0
13 13 10 13 13 10 10 10 10 16 16 16 19 16 13 10 6 6 6 6 0 0 0 3 3 0 0 0 0 0 0 0 3 3 3 3 3 0 6 6 3 0 0
10 6 6 10 10 10 10 10 13 13 13 13 13 10 13 13 10 6 6 6 6 6 3 3 3 3 3 3 3 0 0 0 0 0 0 3 3 6 6 0 3 3 0
6 6 6 10 6 6 10 10 3 10 3 3 10 10 10 10 6 6 6 6 3 0 3 3 3 3 3 3 3 3 3 3 3 3 0 0 3 3 6 0 0 0 3
6 6 3 3 6 6 10 6 10 6 0 0 0 0 6 6 3 3 0 0 0 0 3 6 3 3 3 3 3 3 3 3 3 3 3 3 3 3 3 3 0 0 0
6 3 3 6 6 6 6 6 10 6 6 3 0 0 0 0 0 0 0 0 0 0 3 6 6 3 3 3 3 3 3 3 3 3 3 3 3 3 3 3 3 3 0
6 3 3 3 3 3 3 6 6 6 6 10 6 0 0 0 0 0 0 3 6 3 3 3 3 3 3 3 3 3 3 3 3 3 3 3 3 3 3 3 3 3 0
0 0 3 3 3 3 3 3 6 6 6 10 6 6 0 0 0 0 0 0 0 0 0 0 0 0 0 0 0 3 3 3 3 3 3 3 3 3 3 3 3 3 0
0 0 0 0 0 0 3 3 3 3 6 3 6 6 0 0 0 0 0 0 0 0 0 0 0 0 0 3 0 0 0 0 0 3 3 3 3 3 3 0 0 0 0
0 0 0 0 0 0 0 0 0 0 0 3 3 3 0 0 3 0 0 0 0 0 3 0 0 0 0 0 0 0 0 0 0 3 0 0 0 0 0 0 0 0 0
0 0 0 0 0 0 0 0 0 0 0 3 3 3 0 0 3 3 0 0 0 0 3 3 0 0 0 0 0 0 0 0 0 0 0 0 0 0 0 0 0 0 0
0 0 0 0 0 0 0 0 0 0 3 3 3 3 3 3 3 3 3 3 0 0 0 3 3 0 0 0 0 0 0 0 0 0 0 0 0 0 0 0 0 0 0
0 0 0 0 0 0 0 0 0 0 0 0 0 0 0 3 3 3 3 3 3 3 0 0 3 3 0 0 0 0 0 0 0 0 0 0 0 0 0 0 0 0 0
0 0 0 0 3 3 0 0 0 0 0 0 0 0 0 0 0 0 0 0 3 3 0 0 0 0 0 0 0 0 0 0 0 0 0 0 0 0 0 0 0 0 0

GEFSGL_con_cape1000_330.txt.gz
Probability
48 48 42 45 45 48 52 48 48 55 55 52 55 48 52 52 52 45 42 39 42 45 35 35 39 39 32 32 26 26 26 23 26 19 26 26 32 32 26 29 26 26 19
48 45 45 48 55 48 45 45 48 48 45 42 45 48 42 45 48 39 42 39 39 35 32 35 42 39 39 32 39 32 32 29 23 23 26 29 29 29 32 32 23 26 19
48 45 42 48 45 48 48 52 48 52 45 42 45 45 39 39 39 42 45 39 39 39 32 35 42 45 45 39 35 32 32 23 32 26 26 29 19 19 23 19 19 23 16
48 42 42 42 42 42 45 52 48 48 42 42 39 42 42 42 42 39 39 32 35 35 39 39 42 42 42 45 42 35 32 32 35 35 29 26 26 23 19 19 19 23 16
52 45 45 42 42 42 45 42 45 42 35 35 39 42 39 35 32 32 35 26 26 26 26 29 32 32 35 39 29 35 32 35 35 35 35 26 19 29 16 23 23 19 26
52 52 48 45 42 42 45 42 39 39 35 39 35 32 32 29 13 10 26 23 26 26 23 26 23 19 23 10 10 10 16 29 32 35 26 26 29 26 26 23 23 23 23
52 52 52 45 45 45 35 35 35 35 32 32 35 35 35 26 16 6 6 19 26 26 26 32 26 16 16 23 16 10 10 6 3 29 35 29 29 29 32 23 26 26 26
48 48 48 48 45 39 35 32 35 32 32 32 35 35 32 23 13 6 3 13 19 23 23 23 29 32 23 19 23 16 19 19 16 16 23 29 26 35 32 32 29 26 26
45 45 45 45 42 42 32 35 35 39 35 32 29 29 32 29 13 6 3 26 26 19 23 23 26 29 23 16 13 16 16 16 10 6 6 6 6 6 10 23 26 23 23
35 35 32 35 35 39 32 35 39 39 32 29 26 26 29 32 13 6 0 19 26 23 29 23 16 19 13 10 10 16 19 16 13 13 10 13 13 16 3 16 26 23 26
26 29 39 32 35 35 32 32 32 29 32 29 32 32 29 26 16 10 3 26 26 23 23 19 16 10 3 0 0 16 16 10 13 13 16 19 23 23 23 19 26 23 23
23 29 32 35 26 26 32 32 29 29 32 29 32 32 29 32 13 10 6 3 10 23 23 23 16 6 3 0 0 3 3 3 10 13 16 13 13 13 16 13 26 29 26
26 26 29 29 23 23 23 23 23 26 26 26 26 23 23 29 19 10 3 0 0 13 26 16 6 3 3 3 0 0 0 3 3 6 6 10 10 10 10 13 13 13 19
23 26 32 32 23 19 19 16 16 16 16 16 23 19 19 29 26 19 13 13 0 3 16 6 0 0 0 3 3 0 3 3 3 6 10 6 6 10 10 13 19 19 16
26 23 29 23 19 19 13 13 13 16 13 16 16 16 19 16 16 10 13 10 10 6 6 13 10 10 10 10 10 16 13 10 6 10 10 10 13 13 13 13 13 16 10
26 19 19 16 23 19 16 13 13 13 6 6 10 10 13 13 3 3 6 3 0 3 6 6 10 10 6 6 6 10 13 13 16 16 13 13 6 10 13 13 10 13 13
19 16 16 16 19 19 19 19 13 10 0 0 0 3 0 0 0 0 0 0 0 0 6 10 10 13 13 10 10 10 6 10 16 10 6 6 10 13 6 13 10 10 13
16 13 10 19 13 13 13 10 13 10 10 10 0 0 0 0 0 0 0 0 6 6 10 10 16 19 13 13 10 6 10 10 13 10 10 13 16 13 6 3 6 6 6
6 10 6 10 13 13 10 10 6 16 10 13 6 6 0 0 0 0 0 6 6 6 10 10 10 16 16 16 10 10 10 10 10 13 13 10 13 3 3 3 3 3 3
16 0 6 10 6 10 10 10 13 16 10 10 6 10 3 3 3 3 6 10 10 10 10 10 10 16 16 13 16 13 10 6 6 6 6 6 3 0 0 0 3 3 0
10 6 3 6 16 16 13 16 16 16 13 6 6 6 6 6 3 6 6 3 6 13 10 10 10 6 6 13 13 6 6 6 6 10 10 3 0 0 0 0 0 0 0
13 13 19 13 13 13 10 10 10 10 10 10 10 10 0 3 6 3 3 0 3 6 10 10 10 6 6 10 6 6 6 6 6 6 3 0 0 0 0 0 0 0 0
6 10 13 13 13 6 10 10 10 3 6 6 6 3 3 3 3 0 0 0 0 3 3 3 10 6 6 10 10 6 6 6 3 3 3 3 3 0 0 0 0 0 0
3 3 3 3 6 6 6 6 6 3 6 3 3 3 3 6 3 3 0 0 3 3 3 3 6 6 6 6 10 6 6 3 3 3 3 3 3 0 0 0 0 0 0
6 6 6 6 6 3 3 3 3 6 6 6 6 3 6 6 3 3 3 6 3 6 6 6 6 3 3 3 3 3 3 0 0 3 3 3 3 3 3 3 0 0 0
6 6 6 3 0 0 0 0 0 0 0 0 0 3 0 0 0 0 3 6 10 6 6 6 6 3 3 3 3 3 0 0 0 0 0 3 3 3 3 3 3 3 0